Powrót do katalogu

AE5RA

AktywnyŁącznośćSSO
NORAD 66685·PAYLOAD·🇺🇸 United States

Wystrzelony Nov 28, 2025 z Vandenberg Space Force Base

Loading…

Następne Przeloty (najbliższe 24 godziny)

TLE

ŚwieżeSource: Space-Track

Epoka: Sep 13, 2026, 17:34 UTC

1 66685U 25276V   26256.73203990  .00008068  00000-0  32849-3 0  9998
2 66685  97.4145 329.7840 0005562  73.3690 286.8158 15.24745714 43939

Śledź AE5RA w czasie rzeczywistym z AllMySat

Download on the App Store